Preview of NWS' New Version of Forecast
This preview is not operational and should not be used for support decisions.

Regional Weather Roundup (RWR)

Issued by National Weather Service (NWS)

                            
000
ASUS45 KCYS 180510
RWRWY 

WYOMING REGIONAL WEATHER ROUNDUP
NATIONAL WEATHER SERVICE CHEYENNE WY
1100 PM MDT MON JUN 17 2019

NOTE:  "FAIR" INDICATES FEW OR NO CLOUDS BELOW 12,000 FEET
WITH NO SIGNIFICANT WEATHER AND/OR OBSTRUCTIONS TO VISIBILITY.

WYZ001-180600-
...YELLOWSTONE NATIONAL PARK...
  
CITY           SKY/WX    TMP DP  RH WIND       PRES   REMARKS
LK YELLOWSTONE NOT AVBL                                               
W YELLOWSTONE  NOT AVBL                                               

$$
WYZ002>013-054>058-071-098>099-180600-
...NORTHERN WYOMING...
  
CITY           SKY/WX    TMP DP  RH WIND       PRES   REMARKS
JACKSON        CLOUDY    48  45  89 CALM      30.22R                  
CODY           CLOUDY    58  51  78 SW9       30.13F                  
GREYBULL       MOCLDY    61  55  81 S6        30.06R                  
WORLAND        CLOUDY    59  54  83 S12       30.09R                  
SHERIDAN       PTCLDY    53  49  86 S6        30.07S                  
BUFFALO        MOCLDY    55  48  77 W5        30.12S                  
GILLETTE       MOCLDY    57  53  86 S12       30.10R                  
HULETT         NOT AVBL                                               
NEWCASTLE      FAIR      52  50  93 E15       30.15S                  

$$
WYZ014>020-022>026-101>103-180600-
...CENTRAL WYOMING...
  
CITY           SKY/WX    TMP DP  RH WIND       PRES   REMARKS
BIG PINEY      CLOUDY    53  46  77 NW5       30.24R                  
PINEDALE       CLOUDY    50  43  76 W8        30.24S                  
DUBOIS         CLOUDY    46  43  87 W9        30.24R                  
LANDER         PTCLDY    55  46  71 S3        30.14R                  
RIVERTON       PTCLDY    55  52  89 E3        30.15R                  
CASPER         CLOUDY    56  54  93 W3        30.14R                  
DOUGLAS        CLOUDY    58  55  90 E7        30.15R                  

$$
WYZ021-027>030-104>119-180600-
...SOUTHERN WYOMING...
  
CITY           SKY/WX    TMP DP  RH WIND       PRES   REMARKS
EVANSTON       CLOUDY    52  44  74 W6        30.23R                  
KEMMERER       PTCLDY    50  41  71 N6        30.24R                  
FORT BRIDGER   NOT AVBL                                               
ROCK SPRINGS   MOCLDY    51  48  89 E6        30.20R                  
DIXON          CLOUDY    51  45  78 E14       30.21S                  
RAWLINS        CLOUDY    52  47  83 NW12      30.20S                  
SARATOGA       FAIR      52  46  82 SE3       30.21S                  
LARAMIE        CLOUDY    52  48  86 E5        30.21R                  
CHEYENNE         N/A    N/A N/A N/A MISG      30.18S                  
TORRINGTON     CLOUDY    58  57  97 E5        30.11S                  
PINE BLUFFS    CLOUDY    55  55 100 NE7       30.14S                  

$$